Weather History for Duncan, OK

Change the Weather History Date:

Sunday, March 10, 2013

  Actual Average (KLAW) Record (KLAW)
Temperature  
Mean Temperature 45 °F -  
Max Temperature 57 °F 64 °F 92 °F (1955)
Min Temperature 32 °F 38 °F 17 °F (1998)
Degree Days  
Heating Degree Days 20    
Moisture  
Dew Point 34 °F    
Average Humidity 70    
Maximum Humidity 100    
Minimum Humidity 48    
Precipitation  
Precipitation 0.00 in - - ()
Sea Level Pressure  
Sea Level Pressure 29.92 in    
Wind  
Wind Speed 13 mph (NW)    
Max Wind Speed 24 mph    
Max Gust Speed 32 mph    
Visibility 10 miles    
Events      
Averages and records for this station are not official NWS values.
T = Trace of Precipitation, MM = Missing Value Source: NWS Daily Summary

Daily Weather History Graph

Daily Weather History Graph

Search for Another Location

Airport:

Trip Planner

Search our weather history database for the weather conditions in past years. The results will help you decide how hot, cold, wet, or windy it might be!

Date:

Astronomy

Mar. 10, 2013 Rise Set
Actual Time 7:48 AM CDT 7:35 PM CDT
Civil Twilight 7:23 AM CDT 8:00 PM CDT
Nautical Twilight 6:54 AM CDT 8:29 PM CDT
Astronomical Twilight 6:25 AM CDT 8:59 PM CDT
Moon 6:48 AM CDT (3/10) 6:45 PM CDT (3/10)
Length of Visible Light 12h 37m
Length of Day
11h 46m
Waning Crescent, 2% of the Moon is Illuminated
Mar 10
Waning Crescent
Mar 11
New
Mar 19
First Quarter
Mar 27
Full
Apr 2
Last Quarter

Hourly Weather History & Observations

Time (CDT) Temp. Windchill Dew Point Humidity Pressure Visibility Wind Dir Wind Speed Gust Speed Precip Events Conditions
12:15 AM 55.4 °F - 41.0 °F 58% 29.76 in 10.0 mi WSW 9.2 mph - N/A   Mostly Cloudy
12:35 AM 55.4 °F - 41.0 °F 58% 29.77 in 10.0 mi West 9.2 mph - N/A   Overcast
12:55 AM 55.4 °F - 41.0 °F 58% 29.75 in 10.0 mi SW 6.9 mph - N/A   Overcast
1:15 AM 57.2 °F - 37.4 °F 48% 29.75 in 10.0 mi WSW 11.5 mph - N/A   Overcast
1:35 AM 55.4 °F - 37.4 °F 51% 29.75 in 10.0 mi WSW 8.1 mph - N/A   Overcast
1:55 AM 55.4 °F - 39.2 °F 54% 29.74 in 10.0 mi SW 4.6 mph - N/A   Overcast
3:15 AM 55.4 °F - 37.4 °F 51% 29.70 in 10.0 mi SW 4.6 mph - N/A   Overcast
3:35 AM 53.6 °F - 39.2 °F 58% 29.71 in 10.0 mi SSW 8.1 mph - N/A   Mostly Cloudy
3:55 AM 53.6 °F - 41.0 °F 62% 29.74 in 10.0 mi West 16.1 mph 24.2 mph N/A   Mostly Cloudy
4:15 AM 48.2 °F - 41.0 °F 76% 29.74 in 10.0 mi NW 13.8 mph - N/A   Mostly Cloudy
4:35 AM 46.4 °F 40.7 °F 39.2 °F 76% 29.74 in 10.0 mi NW 12.7 mph 18.4 mph N/A   Mostly Cloudy
4:55 AM 46.4 °F 39.5 °F 37.4 °F 71% 29.74 in 10.0 mi NW 17.3 mph 25.3 mph N/A   Scattered Clouds
5:15 AM 46.4 °F 40.4 °F 37.4 °F 71% 29.76 in 10.0 mi NW 13.8 mph - N/A   Clear
5:35 AM 44.6 °F 38.4 °F 37.4 °F 76% 29.76 in 10.0 mi NW 12.7 mph - N/A   Clear
5:55 AM 44.6 °F 39.7 °F 37.4 °F 76% 29.77 in 10.0 mi NW 9.2 mph 18.4 mph N/A   Scattered Clouds
6:15 AM 44.6 °F 38.1 °F 37.4 °F 76% 29.76 in 10.0 mi NW 13.8 mph 17.3 mph N/A   Mostly Cloudy
6:55 AM 44.6 °F 37.8 °F 37.4 °F 76% 29.78 in 10.0 mi NW 15.0 mph 18.4 mph N/A   Overcast
7:35 AM 44.6 °F 37.2 °F 35.6 °F 71% 29.79 in 10.0 mi NW 17.3 mph 23.0 mph N/A   Overcast
7:55 AM 42.8 °F 35.4 °F 35.6 °F 76% 29.81 in 10.0 mi NW 15.0 mph 21.9 mph N/A   Overcast
8:15 AM 42.8 °F 34.8 °F 35.6 °F 76% 29.81 in 10.0 mi NW 17.3 mph 20.7 mph N/A   Overcast
8:35 AM 42.8 °F 33.8 °F 37.4 °F 81% 29.83 in 10.0 mi NW 21.9 mph 27.6 mph N/A   Overcast
8:55 AM 41.0 °F 32.5 °F 37.4 °F 87% 29.84 in 10.0 mi NW 17.3 mph 26.5 mph N/A   Overcast
9:15 AM 41.0 °F 31.4 °F 35.6 °F 81% 29.85 in 10.0 mi NW 21.9 mph 28.8 mph N/A   Overcast
9:35 AM 41.0 °F 31.9 °F 35.6 °F 81% 29.87 in 10.0 mi NW 19.6 mph 29.9 mph N/A   Overcast
9:55 AM 41.0 °F 31.6 °F 35.6 °F 81% 29.89 in 10.0 mi NW 20.7 mph 32.2 mph N/A   Overcast
10:15 AM 41.0 °F 31.6 °F 35.6 °F 81% 29.90 in 10.0 mi NW 20.7 mph 27.6 mph N/A   Overcast
10:35 AM 41.0 °F 31.9 °F 35.6 °F 81% 29.91 in 10.0 mi NNW 19.6 mph 26.5 mph N/A   Overcast
10:55 AM 41.0 °F 33.1 °F 33.8 °F 76% 29.92 in 10.0 mi NNW 15.0 mph 21.9 mph N/A   Overcast
11:15 AM 41.0 °F 31.9 °F 33.8 °F 76% 29.93 in 10.0 mi NNW 19.6 mph 25.3 mph N/A   Overcast
11:35 AM 41.0 °F 30.9 °F 32.0 °F 70% 29.93 in 10.0 mi NNW 24.2 mph 28.8 mph N/A   Overcast
11:55 AM 42.8 °F 34.8 °F 32.0 °F 66% 29.94 in 10.0 mi NNW 17.3 mph 26.5 mph N/A   Overcast
12:15 PM 42.8 °F 34.3 °F 33.8 °F 70% 29.95 in 10.0 mi NNW 19.6 mph 26.5 mph N/A   Overcast
12:35 PM 42.8 °F 34.3 °F 32.0 °F 66% 29.96 in 10.0 mi NW 19.6 mph 26.5 mph N/A   Overcast
12:55 PM 42.8 °F 34.3 °F 32.0 °F 66% 29.98 in 10.0 mi NW 19.6 mph 24.2 mph N/A   Overcast
1:15 PM 41.0 °F 32.8 °F 32.0 °F 70% 29.98 in 10.0 mi NW 16.1 mph 27.6 mph N/A   Overcast
1:35 PM 41.0 °F 31.4 °F 32.0 °F 70% 29.98 in 10.0 mi NW 21.9 mph 27.6 mph N/A   Overcast
1:55 PM 41.0 °F 31.4 °F 32.0 °F 70% 29.99 in 10.0 mi NW 21.9 mph 26.5 mph N/A   Overcast
2:15 PM 42.8 °F 33.8 °F 32.0 °F 66% 29.99 in 10.0 mi NW 21.9 mph 25.3 mph N/A   Overcast
2:35 PM 41.0 °F 32.5 °F 32.0 °F 70% 29.99 in 10.0 mi NW 17.3 mph 26.5 mph N/A   Overcast
2:55 PM 42.8 °F 34.5 °F 30.2 °F 61% 29.98 in 10.0 mi NNW 18.4 mph 27.6 mph N/A   Overcast
3:15 PM 42.8 °F 34.5 °F 32.0 °F 66% 29.99 in 10.0 mi NNW 18.4 mph 28.8 mph N/A   Overcast
3:35 PM 42.8 °F 34.8 °F 32.0 °F 66% 29.99 in 10.0 mi NW 17.3 mph - N/A   Overcast
3:55 PM 42.8 °F 34.5 °F 32.0 °F 66% 29.99 in 10.0 mi NW 18.4 mph 24.2 mph N/A   Overcast
4:15 PM 44.6 °F 37.2 °F 32.0 °F 61% 29.99 in 10.0 mi NW 17.3 mph 21.9 mph N/A   Overcast
4:35 PM 44.6 °F 37.4 °F 30.2 °F 57% 29.99 in 10.0 mi NNW 16.1 mph - N/A   Overcast
4:55 PM 44.6 °F 37.4 °F 32.0 °F 61% 29.99 in 10.0 mi NW 16.1 mph 23.0 mph N/A   Overcast
5:15 PM 44.6 °F 36.6 °F 30.2 °F 57% 29.99 in 10.0 mi NNW 19.6 mph 26.5 mph N/A   Overcast
5:35 PM 44.6 °F 36.6 °F 30.2 °F 57% 29.99 in 10.0 mi NNW 19.6 mph 25.3 mph N/A   Overcast
5:55 PM 44.6 °F 36.6 °F 30.2 °F 57% 30.00 in 10.0 mi NNW 19.6 mph 26.5 mph N/A   Overcast
6:15 PM 44.6 °F 38.1 °F 30.2 °F 57% 30.00 in 10.0 mi NNW 13.8 mph - N/A   Overcast
6:35 PM 44.6 °F 37.2 °F 30.2 °F 57% 30.00 in 10.0 mi NNW 17.3 mph 24.2 mph N/A   Overcast
6:55 PM 44.6 °F 37.8 °F 32.0 °F 61% 30.01 in 10.0 mi NNW 15.0 mph - N/A   Scattered Clouds
7:15 PM 44.6 °F 38.4 °F 30.2 °F 57% 30.01 in 10.0 mi NNW 12.7 mph - N/A   Clear
7:35 PM 42.8 °F 37.0 °F 32.0 °F 66% 30.02 in 10.0 mi NNW 10.4 mph - N/A   Scattered Clouds
7:55 PM 42.8 °F 37.0 °F 32.0 °F 66% 30.03 in 10.0 mi NNW 10.4 mph - N/A   Mostly Cloudy
8:15 PM 42.8 °F 38.0 °F 32.0 °F 66% 30.04 in 10.0 mi NNW 8.1 mph - N/A   Overcast
8:35 PM 42.8 °F 38.6 °F 32.0 °F 66% 30.05 in 10.0 mi NW 6.9 mph - N/A   Overcast
8:55 PM 41.0 °F 34.7 °F 32.0 °F 70% 30.06 in 10.0 mi North 10.4 mph - N/A   Overcast
9:15 PM 39.2 °F 33.6 °F 32.0 °F 75% 30.06 in 10.0 mi North 8.1 mph - N/A   Overcast
9:35 PM 39.2 °F 35.0 °F 32.0 °F 75% 30.07 in 10.0 mi North 5.8 mph - N/A   Overcast
10:15 PM 37.4 °F 33.8 °F 32.0 °F 81% 30.08 in 10.0 mi North 4.6 mph - N/A   Scattered Clouds
10:55 PM 35.6 °F - 32.0 °F 87% 30.09 in 10.0 mi Calm Calm - N/A   Clear
11:15 PM 35.6 °F 32.8 °F 32.0 °F 87% 30.09 in 10.0 mi NW 3.5 mph - N/A   Clear
11:35 PM 35.6 °F 32.8 °F 32.0 °F 87% 30.09 in 10.0 mi NW 3.5 mph - N/A   Clear
11:55 PM 33.8 °F 30.8 °F 32.0 °F 93% 30.09 in 10.0 mi NW 3.5 mph - N/A   Clear
12:15 AM 33.8 °F 30.8 °F 32.0 °F 93% 30.08 in 10.0 mi NW 3.5 mph - N/A   Clear
12:35 AM 33.8 °F 30.8 °F 32.0 °F 93% 30.08 in 10.0 mi NW 3.5 mph - N/A   Clear
12:55 AM 32.0 °F 28.7 °F 32.0 °F 100% 30.08 in 10.0 mi NW 3.5 mph - N/A   Clear